Time,TemperatureF,DewpointF,PressureIn,WindDirection,WindDirectionDegrees,WindSpeedMPH,WindSpeedGustMPH,Humidity,HourlyPrecipIn,Conditions,Clouds,dailyrainin,SoftwareType,DateUTC
2013-01-13 00:00:00,51.3,51.3,30.16,East,92,0.0,0.0,100,0.00,,,0.00,Wunderground v.1.15,2013-01-13 05:00:00,
2013-01-13 00:01:00,51.3,51.3,30.16,East,92,0.0,0.0,100,0.00,,,0.00,Wunderground v.1.15,2013-01-13 05:01:00,
2013-01-13 00:02:00,51.2,51.2,30.17,East,92,0.0,0.0,100,0.00,,,0.00,Wunderground v.1.15,2013-01-13 05:02:00,
2013-01-13 00:04:00,51.2,51.2,30.16,East,92,0.0,0.0,100,0.00,,,0.00,Wunderground v.1.15,2013-01-13 05:04:00,
2013-01-13 00:09:00,50.7,50.4,30.16,East,92,0.0,1.0,99,0.00,,,0.00,Wunderground v.1.15,2013-01-13 05:09:00,
2013-01-13 00:14:00,50.1,49.8,30.17,East,92,1.0,2.0,99,0.00,,,0.00,Wunderground v.1.15,2013-01-13 05:14:00,
2013-01-13 00:19:00,49.6,49.1,30.16,East,92,1.0,2.0,98,0.00,,,0.00,Wunderground v.1.15,2013-01-13 05:19:00,
2013-01-13 00:24:00,49.5,49.2,30.16,SSE,151,1.0,2.0,99,0.00,,,0.00,Wunderground v.1.15,2013-01-13 05:24:00,
2013-01-13 00:29:00,49.3,49.0,30.16,SSE,151,1.0,2.0,99,0.00,,,0.00,Wunderground v.1.15,2013-01-13 05:29:00,
2013-01-13 00:34:00,49.2,48.9,30.16,SSE,151,1.0,2.0,99,0.00,,,0.00,Wunderground v.1.15,2013-01-13 05:34:00,
2013-01-13 00:40:00,49.7,49.4,30.16,SSW,200,0.0,2.0,99,0.00,,,0.00,Wunderground v.1.15,2013-01-13 05:40:00,
2013-01-13 00:45:00,50.8,50.8,30.16,SSE,160,0.0,2.0,100,0.00,,,0.00,Wunderground v.1.15,2013-01-13 05:45:00,
2013-01-13 00:50:00,51.7,51.7,30.16,SSE,150,1.0,1.0,100,0.00,,,0.00,Wunderground v.1.15,2013-01-13 05:50:00,
2013-01-13 00:55:00,51.7,51.7,30.16,SSE,161,0.0,1.0,100,0.00,,,0.00,Wunderground v.1.15,2013-01-13 05:55:00,
2013-01-13 01:00:00,51.4,51.4,30.16,SSE,163,1.0,1.0,100,0.00,,,0.00,Wunderground v.1.15,2013-01-13 06:00:00,
2013-01-13 01:05:00,50.4,50.4,30.16,SE,142,1.0,4.0,100,0.00,,,0.00,Wunderground v.1.15,2013-01-13 06:05:00,
2013-01-13 01:10:00,50.8,50.5,30.16,South,173,1.0,1.0,99,0.00,,,0.00,Wunderground v.1.15,2013-01-13 06:10:00,
2013-01-13 01:15:00,51.7,51.7,30.16,SSE,153,1.0,5.0,100,0.00,,,0.00,Wunderground v.1.15,2013-01-13 06:15:00,
2013-01-13 01:20:00,53.2,53.2,30.16,SSE,152,2.0,4.0,100,0.00,,,0.00,Wunderground v.1.15,2013-01-13 06:20:00,
2013-01-13 01:25:00,53.5,53.5,30.16,SSE,165,3.0,4.0,100,0.00,,,0.00,Wunderground v.1.15,2013-01-13 06:25:00,
2013-01-13 01:30:00,53.9,53.9,30.16,SSE,153,3.0,4.0,100,0.00,,,0.00,Wunderground v.1.15,2013-01-13 06:30:00,
2013-01-13 01:36:00,54.1,54.1,30.16,SSE,158,3.0,4.0,100,0.00,,,0.00,Wunderground v.1.15,2013-01-13 06:36:00,
2013-01-13 01:41:00,54.9,54.9,30.16,SSE,164,5.0,7.0,100,0.00,,,0.00,Wunderground v.1.15,2013-01-13 06:41:00,
2013-01-13 01:46:00,55.3,55.3,30.15,SSE,147,5.0,7.0,100,0.00,,,0.00,Wunderground v.1.15,2013-01-13 06:46:00,
2013-01-13 01:51:00,56.0,56.0,30.15,South,175,5.0,11.0,100,0.00,,,0.00,Wunderground v.1.15,2013-01-13 06:51:00,
2013-01-13 01:56:00,56.7,56.7,30.15,South,169,7.0,11.0,100,0.00,,,0.00,Wunderground v.1.15,2013-01-13 06:56:00,
2013-01-13 02:02:00,56.8,56.8,30.15,South,174,6.0,7.0,100,0.00,,,0.00,Wunderground v.1.15,2013-01-13 07:02:00,
2013-01-13 02:07:00,57.4,56.6,30.15,South,175,7.0,8.0,97,0.00,,,0.00,Wunderground v.1.15,2013-01-13 07:07:00,
2013-01-13 02:12:00,57.5,56.4,30.16,SSE,151,7.0,7.0,96,0.00,,,0.00,Wunderground v.1.15,2013-01-13 07:12:00,
2013-01-13 02:17:00,57.6,56.2,30.15,SSE,150,6.0,7.0,95,0.00,,,0.00,Wunderground v.1.15,2013-01-13 07:17:00,
2013-01-13 02:22:00,57.6,56.2,30.15,SSE,157,7.0,8.0,95,0.00,,,0.00,Wunderground v.1.15,2013-01-13 07:22:00,
2013-01-13 02:28:00,57.9,56.2,30.15,SSE,153,8.0,12.0,94,0.00,,,0.00,Wunderground v.1.15,2013-01-13 07:28:00,
2013-01-13 02:33:00,57.8,55.8,30.15,South,177,6.0,7.0,93,0.00,,,0.00,Wunderground v.1.15,2013-01-13 07:33:00,
2013-01-13 02:38:00,56.9,54.0,30.15,SW,236,4.0,7.0,90,0.00,,,0.00,Wunderground v.1.15,2013-01-13 07:38:00,
2013-01-13 02:43:00,55.7,53.7,30.15,SW,218,3.0,4.0,93,0.00,,,0.00,Wunderground v.1.15,2013-01-13 07:43:00,
2013-01-13 02:48:00,54.9,53.2,30.15,West,269,2.0,4.0,94,0.00,,,0.00,Wunderground v.1.15,2013-01-13 07:48:00,
2013-01-13 02:54:00,54.3,52.9,30.15,NNW,330,2.0,4.0,95,0.00,,,0.00,Wunderground v.1.15,2013-01-13 07:54:00,
2013-01-13 02:59:00,54.1,53.3,30.15,NW,317,2.0,4.0,97,0.00,,,0.00,Wunderground v.1.15,2013-01-13 07:59:00,
2013-01-13 03:04:00,54.2,53.6,30.14,NW,318,2.0,4.0,98,0.00,,,0.00,Wunderground v.1.15,2013-01-13 08:04:00,
2013-01-13 03:09:00,54.1,53.3,30.14,NW,318,1.0,4.0,97,0.00,,,0.00,Wunderground v.1.15,2013-01-13 08:09:00,
2013-01-13 03:14:00,53.8,53.0,30.15,NW,318,0.0,4.0,97,0.00,,,0.00,Wunderground v.1.15,2013-01-13 08:14:00,
2013-01-13 03:20:00,53.2,52.4,30.14,NW,318,0.0,4.0,97,0.00,,,0.00,Wunderground v.1.15,2013-01-13 08:20:00,
2013-01-13 03:25:00,53.1,52.3,30.14,NW,318,1.0,4.0,97,0.00,,,0.00,Wunderground v.1.15,2013-01-13 08:25:00,
2013-01-13 03:30:00,53.3,52.8,30.14,NW,318,0.0,4.0,98,0.00,,,0.00,Wunderground v.1.15,2013-01-13 08:30:00,
2013-01-13 03:35:00,52.9,52.1,30.15,NW,318,0.0,4.0,97,0.00,,,0.00,Wunderground v.1.15,2013-01-13 08:35:00,
2013-01-13 03:40:00,52.9,52.4,30.14,NW,318,0.0,4.0,98,0.00,,,0.00,Wunderground v.1.15,2013-01-13 08:40:00,
2013-01-13 03:46:00,51.9,50.8,30.14,WNW,296,1.0,4.0,96,0.00,,,0.00,Wunderground v.1.15,2013-01-13 08:46:00,
2013-01-13 03:51:00,51.7,51.2,30.13,WNW,296,1.0,4.0,98,0.00,,,0.00,Wunderground v.1.15,2013-01-13 08:51:00,
2013-01-13 03:56:00,51.5,51.0,30.13,NNE,32,1.0,4.0,98,0.00,,,0.00,Wunderground v.1.15,2013-01-13 08:56:00,
2013-01-13 04:01:00,51.6,51.1,30.13,WNW,302,1.0,4.0,98,0.00,,,0.00,Wunderground v.1.15,2013-01-13 09:01:00,
2013-01-13 04:06:00,51.2,50.7,30.13,WNW,302,0.0,4.0,98,0.00,,,0.00,Wunderground v.1.15,2013-01-13 09:06:00,
2013-01-13 04:12:00,51.8,51.5,30.14,SSW,209,1.0,4.0,99,0.00,,,0.00,Wunderground v.1.15,2013-01-13 09:12:00,
2013-01-13 04:17:00,51.6,51.1,30.13,WSW,247,1.0,4.0,98,0.00,,,0.00,Wunderground v.1.15,2013-01-13 09:17:00,
2013-01-13 04:22:00,52.5,52.2,30.13,SSE,165,3.0,5.0,99,0.00,,,0.00,Wunderground v.1.15,2013-01-13 09:22:00,
2013-01-13 04:27:00,53.4,53.1,30.14,South,181,4.0,7.0,99,0.00,,,0.00,Wunderground v.1.15,2013-01-13 09:27:00,
2013-01-13 04:32:00,52.9,51.2,30.14,WNW,294,3.0,5.0,94,0.00,,,0.00,Wunderground v.1.15,2013-01-13 09:32:00,
2013-01-13 04:38:00,52.9,52.4,30.13,WNW,294,2.0,5.0,98,0.00,,,0.00,Wunderground v.1.15,2013-01-13 09:38:00,
2013-01-13 04:43:00,53.2,52.7,30.13,WNW,293,1.0,4.0,98,0.00,,,0.00,Wunderground v.1.15,2013-01-13 09:43:00,
2013-01-13 04:48:00,53.7,53.4,30.13,West,273,1.0,4.0,99,0.00,,,0.00,Wunderground v.1.15,2013-01-13 09:48:00,
2013-01-13 04:53:00,54.1,53.5,30.13,West,273,0.0,4.0,98,0.00,,,0.00,Wunderground v.1.15,2013-01-13 09:53:00,
2013-01-13 04:58:00,54.2,53.1,30.13,SW,217,1.0,5.0,96,0.00,,,0.00,Wunderground v.1.15,2013-01-13 09:58:00,
2013-01-13 05:04:00,54.3,53.2,30.13,SW,217,1.0,4.0,96,0.00,,,0.00,Wunderground v.1.15,2013-01-13 10:04:00,
2013-01-13 05:09:00,54.4,53.3,30.13,SW,217,0.0,4.0,96,0.00,,,0.00,Wunderground v.1.15,2013-01-13 10:09:00,
2013-01-13 05:14:00,54.3,53.2,30.13,South,191,1.0,4.0,96,0.00,,,0.00,Wunderground v.1.15,2013-01-13 10:14:00,
2013-01-13 05:19:00,54.1,52.7,30.13,SSW,192,1.0,4.0,95,0.00,,,0.00,Wunderground v.1.15,2013-01-13 10:19:00,
2013-01-13 05:24:00,53.3,51.3,30.13,SSW,192,1.0,4.0,93,0.00,,,0.00,Wunderground v.1.15,2013-01-13 10:24:00,
2013-01-13 05:30:00,53.3,52.8,30.13,SSE,148,1.0,1.0,98,0.00,,,0.00,Wunderground v.1.15,2013-01-13 10:30:00,
2013-01-13 05:35:00,53.2,52.4,30.13,SSW,196,1.0,4.0,97,0.00,,,0.00,Wunderground v.1.15,2013-01-13 10:35:00,
2013-01-13 05:40:00,53.0,52.2,30.13,SSW,196,0.0,4.0,97,0.00,,,0.00,Wunderground v.1.15,2013-01-13 10:40:00,
2013-01-13 05:45:00,53.1,52.6,30.13,SE,140,1.0,4.0,98,0.00,,,0.00,Wunderground v.1.15,2013-01-13 10:45:00,
2013-01-13 05:50:00,53.5,52.9,30.12,SE,140,1.0,1.0,98,0.00,,,0.00,Wunderground v.1.15,2013-01-13 10:50:00,
2013-01-13 05:56:00,53.5,52.9,30.13,SE,130,0.0,4.0,98,0.00,,,0.00,Wunderground v.1.15,2013-01-13 10:56:00,
2013-01-13 06:01:00,53.6,53.0,30.13,SE,126,1.0,2.0,98,0.00,,,0.00,Wunderground v.1.15,2013-01-13 11:01:00,
2013-01-13 06:06:00,53.7,52.9,30.13,West,278,1.0,4.0,97,0.00,,,0.00,Wunderground v.1.15,2013-01-13 11:06:00,
2013-01-13 06:11:00,53.9,53.1,30.13,West,278,0.0,4.0,97,0.00,,,0.00,Wunderground v.1.15,2013-01-13 11:11:00,
2013-01-13 06:16:00,53.9,53.1,30.13,West,278,0.0,4.0,97,0.00,,,0.00,Wunderground v.1.15,2013-01-13 11:16:00,
2013-01-13 06:22:00,54.0,52.6,30.13,South,186,1.0,4.0,95,0.00,,,0.00,Wunderground v.1.15,2013-01-13 11:22:00,
2013-01-13 06:27:00,53.9,52.5,30.13,SSE,148,2.0,4.0,95,0.00,,,0.00,Wunderground v.1.15,2013-01-13 11:27:00,
2013-01-13 06:32:00,54.5,53.7,30.13,SSE,164,1.0,4.0,97,0.00,,,0.00,Wunderground v.1.15,2013-01-13 11:32:00,
2013-01-13 06:37:00,54.9,53.8,30.13,SSE,153,2.0,4.0,96,0.00,,,0.00,Wunderground v.1.15,2013-01-13 11:37:00,
2013-01-13 06:42:00,55.5,54.1,30.13,SSE,164,2.0,5.0,95,0.00,,,0.00,Wunderground v.1.15,2013-01-13 11:42:00,
2013-01-13 06:48:00,56.4,54.4,30.13,SE,144,3.0,5.0,93,0.00,,,0.00,Wunderground v.1.15,2013-01-13 11:48:00,
2013-01-13 06:53:00,56.7,54.4,30.13,SE,132,3.0,4.0,92,0.00,,,0.00,Wunderground v.1.15,2013-01-13 11:53:00,
2013-01-13 06:58:00,57.2,54.6,30.14,SSE,155,4.0,8.0,91,0.00,,,0.00,Wunderground v.1.15,2013-01-13 11:58:00,
2013-01-13 07:03:00,57.5,54.9,30.14,SSE,164,5.0,6.0,91,0.00,,,0.00,Wunderground v.1.15,2013-01-13 12:03:00,
2013-01-13 07:08:00,57.7,55.1,30.14,SSE,156,5.0,9.0,91,0.00,,,0.00,Wunderground v.1.15,2013-01-13 12:08:00,
2013-01-13 07:14:00,58.1,55.5,30.14,SSW,213,5.0,8.0,91,0.00,,,0.00,Wunderground v.1.15,2013-01-13 12:14:00,
2013-01-13 07:19:00,58.5,55.9,30.14,SSW,199,6.0,8.0,91,0.00,,,0.00,Wunderground v.1.15,2013-01-13 12:19:00,
2013-01-13 07:24:00,59.1,56.2,30.15,South,187,7.0,10.0,90,0.00,,,0.00,Wunderground v.1.15,2013-01-13 12:24:00,
2013-01-13 07:29:00,59.2,56.3,30.15,SSW,201,7.0,10.0,90,0.00,,,0.00,Wunderground v.1.15,2013-01-13 12:29:00,
2013-01-13 07:34:00,59.3,56.7,30.15,SW,217,6.0,8.0,91,0.00,,,0.00,Wunderground v.1.15,2013-01-13 12:34:00,
2013-01-13 07:40:00,59.5,56.6,30.15,SSW,202,6.0,6.0,90,0.00,,,0.00,Wunderground v.1.15,2013-01-13 12:40:00,
2013-01-13 07:45:00,59.4,56.5,30.16,SW,219,5.0,6.0,90,0.00,,,0.00,Wunderground v.1.15,2013-01-13 12:45:00,
2013-01-13 07:50:00,59.4,56.5,30.15,West,260,4.0,4.0,90,0.00,,,0.00,Wunderground v.1.15,2013-01-13 12:50:00,
2013-01-13 07:55:00,59.2,56.3,30.15,WSW,252,3.0,11.0,90,0.00,,,0.00,Wunderground v.1.15,2013-01-13 12:55:00,
2013-01-13 08:00:00,59.4,56.2,30.16,West,259,4.0,4.0,89,0.00,,,0.00,Wunderground v.1.15,2013-01-13 13:00:00,
2013-01-13 08:06:00,59.4,56.2,30.16,West,265,4.0,9.0,89,0.00,,,0.00,Wunderground v.1.15,2013-01-13 13:06:00,
2013-01-13 08:11:00,59.6,56.4,30.16,SW,229,4.0,6.0,89,0.00,,,0.00,Wunderground v.1.15,2013-01-13 13:11:00,
2013-01-13 08:16:00,59.9,56.6,30.16,SW,236,5.0,7.0,89,0.00,,,0.00,Wunderground v.1.15,2013-01-13 13:16:00,
2013-01-13 08:21:00,60.1,56.8,30.16,SW,221,5.0,8.0,89,0.00,,,0.00,Wunderground v.1.15,2013-01-13 13:21:00,
2013-01-13 08:26:00,60.7,57.1,30.16,WSW,244,7.0,10.0,88,0.00,,,0.00,Wunderground v.1.15,2013-01-13 13:26:00,
2013-01-13 08:31:00,60.9,56.7,30.17,West,259,8.0,8.0,86,0.00,,,0.00,Wunderground v.1.15,2013-01-13 13:31:00,
2013-01-13 08:36:00,60.9,57.0,30.17,WSW,252,7.0,8.0,87,0.00,,,0.00,Wunderground v.1.15,2013-01-13 13:36:00,
2013-01-13 08:41:00,60.9,57.0,30.17,WSW,242,6.0,9.0,87,0.00,,,0.01,Wunderground v.1.15,2013-01-13 13:41:00,
2013-01-13 08:46:00,61.3,57.1,30.17,WSW,252,8.0,13.0,86,0.00,,,0.01,Wunderground v.1.15,2013-01-13 13:46:00,
2013-01-13 08:51:00,61.5,56.9,30.17,WSW,254,11.0,12.0,85,0.00,,,0.01,Wunderground v.1.15,2013-01-13 13:51:00,
2013-01-13 08:56:00,61.8,56.9,30.17,West,265,12.0,24.0,84,0.00,,,0.01,Wunderground v.1.15,2013-01-13 13:56:00,
2013-01-13 09:01:00,61.8,56.9,30.17,WSW,246,13.0,15.0,84,0.00,,,0.01,Wunderground v.1.15,2013-01-13 14:01:00,
2013-01-13 09:07:00,61.8,56.6,30.17,WSW,249,13.0,18.0,83,0.00,,,0.01,Wunderground v.1.15,2013-01-13 14:07:00,
2013-01-13 09:12:00,61.7,56.8,30.17,WSW,240,13.0,13.0,84,0.00,,,0.01,Wunderground v.1.15,2013-01-13 14:12:00,
2013-01-13 09:17:00,61.8,56.6,30.17,West,261,13.0,24.0,83,0.00,,,0.01,Wunderground v.1.15,2013-01-13 14:17:00,
2013-01-13 09:34:00,62.9,56.3,30.17,West,267,16.0,16.0,79,0.00,,,0.01,Wunderground v.1.15,2013-01-13 14:34:00,
2013-01-13 09:40:00,63.0,56.0,30.17,West,261,17.0,17.0,78,0.00,,,0.01,Wunderground v.1.15,2013-01-13 14:40:00,
2013-01-13 09:45:00,63.2,56.2,30.17,WSW,241,16.0,17.0,78,0.00,,,0.01,Wunderground v.1.15,2013-01-13 14:45:00,
2013-01-13 09:51:00,63.5,56.2,30.17,West,260,13.0,16.0,77,0.00,,,0.01,Wunderground v.1.15,2013-01-13 14:51:00,
2013-01-13 09:56:00,63.6,56.3,30.16,WSW,255,13.0,16.0,77,0.00,,,0.01,Wunderground v.1.15,2013-01-13 14:56:00,
2013-01-13 10:01:00,63.8,56.4,30.17,WSW,237,11.0,16.0,77,0.00,,,0.01,Wunderground v.1.15,2013-01-13 15:01:00,
2013-01-13 10:06:00,63.9,56.2,30.17,WSW,237,11.0,19.0,76,0.00,,,0.01,Wunderground v.1.15,2013-01-13 15:06:00,
2013-01-13 10:12:00,63.8,56.1,30.17,WSW,242,15.0,20.0,76,0.00,,,0.01,Wunderground v.1.15,2013-01-13 15:12:00,
2013-01-13 10:17:00,63.9,56.2,30.17,SW,236,13.0,20.0,76,0.00,,,0.01,Wunderground v.1.15,2013-01-13 15:17:00,
2013-01-13 10:22:00,64.1,56.0,30.17,WSW,246,11.0,12.0,75,0.00,,,0.01,Wunderground v.1.15,2013-01-13 15:22:00,
2013-01-13 10:27:00,64.0,55.5,30.17,SW,225,11.0,16.0,74,0.00,,,0.01,Wunderground v.1.15,2013-01-13 15:27:00,
2013-01-13 12:24:00,63.7,56.7,30.13,WNW,288,13.0,13.0,78,0.00,,,0.01,Wunderground v.1.15,2013-01-13 17:24:00,
2013-01-13 15:05:00,64.1,58.1,30.12,SW,227,8.0,11.0,81,0.00,,,0.01,Wunderground v.1.15,2013-01-13 20:05:00,
2013-01-13 15:11:00,63.3,58.0,30.12,South,169,9.0,11.0,83,0.00,,,0.01,Wunderground v.1.15,2013-01-13 20:11:00,
2013-01-13 15:16:00,62.6,57.7,30.12,South,173,12.0,14.0,84,0.00,,,0.01,Wunderground v.1.15,2013-01-13 20:16:00,
2013-01-13 15:21:00,62.5,57.9,30.13,SSW,210,11.0,16.0,85,0.00,,,0.01,Wunderground v.1.15,2013-01-13 20:21:00,
2013-01-13 15:26:00,62.3,58.1,30.13,SSW,196,10.0,16.0,86,0.00,,,0.01,Wunderground v.1.15,2013-01-13 20:26:00,
2013-01-13 15:31:00,62.3,57.7,30.13,SSW,207,10.0,15.0,85,0.00,,,0.01,Wunderground v.1.15,2013-01-13 20:31:00,
2013-01-13 15:37:00,62.3,57.7,30.13,South,183,10.0,15.0,85,0.00,,,0.01,Wunderground v.1.15,2013-01-13 20:37:00,
2013-01-13 15:42:00,62.1,57.5,30.13,SSW,205,10.0,12.0,85,0.00,,,0.01,Wunderground v.1.15,2013-01-13 20:42:00,
2013-01-13 15:47:00,62.0,57.4,30.13,South,178,10.0,12.0,85,0.00,,,0.01,Wunderground v.1.15,2013-01-13 20:47:00,
2013-01-13 15:52:00,61.8,57.6,30.13,SW,220,9.0,11.0,86,0.00,,,0.01,Wunderground v.1.15,2013-01-13 20:52:00,
2013-01-13 15:57:00,61.8,57.6,30.13,SSW,193,8.0,11.0,86,0.00,,,0.01,Wunderground v.1.15,2013-01-13 20:57:00,
2013-01-13 16:03:00,61.7,57.5,30.14,SSW,205,7.0,10.0,86,0.00,,,0.01,Wunderground v.1.15,2013-01-13 21:03:00,
2013-01-13 16:08:00,61.7,57.1,30.14,SW,220,8.0,11.0,85,0.00,,,0.01,Wunderground v.1.15,2013-01-13 21:08:00,
2013-01-13 16:13:00,61.7,57.1,30.14,WSW,242,8.0,9.0,85,0.00,,,0.01,Wunderground v.1.15,2013-01-13 21:13:00,
2013-01-13 16:18:00,61.8,56.9,30.14,SW,224,8.0,9.0,84,0.00,,,0.01,Wunderground v.1.15,2013-01-13 21:18:00,
2013-01-13 16:23:00,61.8,56.9,30.14,SSW,207,8.0,12.0,84,0.00,,,0.01,Wunderground v.1.15,2013-01-13 21:23:00,
2013-01-13 16:29:00,61.7,56.8,30.14,SSW,203,8.0,12.0,84,0.00,,,0.01,Wunderground v.1.15,2013-01-13 21:29:00,
2013-01-13 16:34:00,61.7,56.8,30.14,SW,219,7.0,10.0,84,0.00,,,0.01,Wunderground v.1.15,2013-01-13 21:34:00,
2013-01-13 16:39:00,61.7,56.5,30.14,WSW,249,8.0,10.0,83,0.00,,,0.01,Wunderground v.1.15,2013-01-13 21:39:00,
2013-01-13 16:44:00,61.8,56.6,30.14,WSW,238,8.0,12.0,83,0.00,,,0.01,Wunderground v.1.15,2013-01-13 21:44:00,
2013-01-13 16:49:00,61.8,56.6,30.15,SSW,194,8.0,12.0,83,0.00,,,0.01,Wunderground v.1.15,2013-01-13 21:49:00,
2013-01-13 16:55:00,61.7,56.5,30.15,SSW,213,7.0,9.0,83,0.00,,,0.01,Wunderground v.1.15,2013-01-13 21:55:00,
2013-01-13 17:00:00,61.7,56.1,30.14,SW,227,7.0,7.0,82,0.00,,,0.01,Wunderground v.1.15,2013-01-13 22:00:00,
2013-01-13 17:05:00,61.6,56.0,30.14,SW,225,7.0,8.0,82,0.00,,,0.01,Wunderground v.1.15,2013-01-13 22:05:00,
2013-01-13 17:10:00,61.7,56.1,30.14,SW,227,7.0,9.0,82,0.00,,,0.01,Wunderground v.1.15,2013-01-13 22:10:00,
2013-01-13 17:16:00,61.6,56.0,30.14,SSW,196,8.0,9.0,82,0.00,,,0.01,Wunderground v.1.15,2013-01-13 22:16:00,
2013-01-13 17:21:00,61.5,56.0,30.14,SW,220,7.0,7.0,82,0.00,,,0.01,Wunderground v.1.15,2013-01-13 22:21:00,
2013-01-13 17:26:00,61.3,56.1,30.14,South,188,6.0,7.0,83,0.00,,,0.01,Wunderground v.1.15,2013-01-13 22:26:00,
2013-01-13 17:32:00,61.1,56.2,30.14,South,182,5.0,6.0,84,0.00,,,0.01,Wunderground v.1.15,2013-01-13 22:32:00,
2013-01-13 17:37:00,60.9,56.4,30.14,SSE,159,4.0,7.0,85,0.00,,,0.01,Wunderground v.1.15,2013-01-13 22:37:00,
2013-01-13 17:43:00,60.6,56.4,30.14,SE,136,5.0,8.0,86,0.00,,,0.01,Wunderground v.1.15,2013-01-13 22:43:00,
2013-01-13 17:48:00,60.4,56.5,30.14,SSE,163,7.0,10.0,87,0.00,,,0.01,Wunderground v.1.15,2013-01-13 22:48:00,
2013-01-13 17:53:00,60.2,56.6,30.14,South,184,8.0,8.0,88,0.00,,,0.01,Wunderground v.1.15,2013-01-13 22:53:00,
2013-01-13 17:58:00,60.0,56.4,30.14,SSE,165,8.0,12.0,88,0.00,,,0.01,Wunderground v.1.15,2013-01-13 22:58:00,
2013-01-13 18:03:00,59.9,56.3,30.14,South,179,7.0,8.0,88,0.00,,,0.01,Wunderground v.1.15,2013-01-13 23:03:00,
2013-01-13 18:09:00,59.8,56.6,30.14,SSE,151,5.0,8.0,89,0.00,,,0.01,Wunderground v.1.15,2013-01-13 23:09:00,
2013-01-13 18:14:00,59.7,56.8,30.14,South,180,4.0,5.0,90,0.00,,,0.01,Wunderground v.1.15,2013-01-13 23:14:00,
2013-01-13 18:19:00,59.6,56.7,30.14,South,173,4.0,6.0,90,0.00,,,0.01,Wunderground v.1.15,2013-01-13 23:19:00,
2013-01-13 18:24:00,59.5,56.6,30.14,South,173,2.0,4.0,90,0.00,,,0.01,Wunderground v.1.15,2013-01-13 23:24:00,
2013-01-13 18:29:00,59.4,56.8,30.14,South,190,2.0,5.0,91,0.00,,,0.01,Wunderground v.1.15,2013-01-13 23:29:00,
2013-01-13 18:35:00,59.2,56.6,30.15,WSW,250,2.0,4.0,91,0.00,,,0.01,Wunderground v.1.15,2013-01-13 23:35:00,
2013-01-13 18:40:00,59.1,56.8,30.14,SW,229,2.0,2.0,92,0.00,,,0.01,Wunderground v.1.15,2013-01-13 23:40:00,
2013-01-13 18:45:00,59.0,56.7,30.14,SE,145,2.0,5.0,92,0.00,,,0.01,Wunderground v.1.15,2013-01-13 23:45:00,
2013-01-13 18:50:00,59.0,56.7,30.15,SSE,167,2.0,4.0,92,0.00,,,0.01,Wunderground v.1.15,2013-01-13 23:50:00,
2013-01-13 18:55:00,59.0,56.7,30.15,SSW,203,2.0,6.0,92,0.00,,,0.01,Wunderground v.1.15,2013-01-13 23:55:00,
2013-01-13 19:01:00,59.1,57.1,30.15,SSW,202,3.0,5.0,93,0.00,,,0.01,Wunderground v.1.15,2013-01-14 00:01:00,
2013-01-13 19:06:00,59.1,57.1,30.14,SSE,160,3.0,5.0,93,0.00,,,0.01,Wunderground v.1.15,2013-01-14 00:06:00,
2013-01-13 19:11:00,59.2,57.2,30.14,SE,140,3.0,5.0,93,0.00,,,0.01,Wunderground v.1.15,2013-01-14 00:11:00,
2013-01-13 19:16:00,59.2,57.2,30.14,South,182,4.0,7.0,93,0.00,,,0.01,Wunderground v.1.15,2013-01-14 00:16:00,
2013-01-13 19:21:00,59.3,57.3,30.15,SSW,199,4.0,5.0,93,0.00,,,0.01,Wunderground v.1.15,2013-01-14 00:21:00,
2013-01-13 19:26:00,59.3,57.3,30.14,South,171,2.0,5.0,93,0.00,,,0.01,Wunderground v.1.15,2013-01-14 00:26:00,
2013-01-13 19:31:00,59.3,57.3,30.14,SSW,213,2.0,4.0,93,0.00,,,0.01,Wunderground v.1.15,2013-01-14 00:31:00,
2013-01-13 19:36:00,59.4,57.4,30.14,SSE,157,3.0,6.0,93,0.00,,,0.01,Wunderground v.1.15,2013-01-14 00:36:00,
2013-01-13 19:41:00,59.5,57.5,30.13,SSE,154,4.0,5.0,93,0.00,,,0.01,Wunderground v.1.15,2013-01-14 00:41:00,
2013-01-13 19:46:00,59.6,57.6,30.13,South,188,5.0,9.0,93,0.00,,,0.01,Wunderground v.1.15,2013-01-14 00:46:00,
2013-01-13 19:51:00,59.7,57.7,30.13,South,184,5.0,5.0,93,0.00,,,0.01,Wunderground v.1.15,2013-01-14 00:51:00,
2013-01-13 19:56:00,59.5,57.2,30.13,South,178,4.0,7.0,92,0.00,,,0.01,Wunderground v.1.15,2013-01-14 00:56:00,
2013-01-13 20:02:00,59.6,57.6,30.13,SSE,163,6.0,6.0,93,0.00,,,0.01,Wunderground v.1.15,2013-01-14 01:02:00,
2013-01-13 20:07:00,59.8,57.5,30.13,South,184,6.0,10.0,92,0.00,,,0.01,Wunderground v.1.15,2013-01-14 01:07:00,
2013-01-13 20:12:00,60.0,57.7,30.13,South,175,6.0,6.0,92,0.00,,,0.01,Wunderground v.1.15,2013-01-14 01:12:00,
2013-01-13 20:17:00,59.9,57.3,30.13,South,188,5.0,6.0,91,0.00,,,0.01,Wunderground v.1.15,2013-01-14 01:17:00,
2013-01-13 20:22:00,59.9,57.6,30.13,SSW,206,5.0,8.0,92,0.00,,,0.01,Wunderground v.1.15,2013-01-14 01:22:00,
2013-01-13 20:28:00,59.8,57.5,30.14,South,178,5.0,8.0,92,0.00,,,0.01,Wunderground v.1.15,2013-01-14 01:28:00,
2013-01-13 20:33:00,59.8,57.5,30.14,South,172,5.0,7.0,92,0.00,,,0.01,Wunderground v.1.15,2013-01-14 01:33:00,
2013-01-13 20:38:00,60.1,57.5,30.14,SW,221,6.0,11.0,91,0.00,,,0.01,Wunderground v.1.15,2013-01-14 01:38:00,
2013-01-13 20:43:00,60.2,57.6,30.14,SSW,197,5.0,6.0,91,0.00,,,0.01,Wunderground v.1.15,2013-01-14 01:43:00,
2013-01-13 20:48:00,60.1,57.5,30.14,SSE,167,3.0,6.0,91,0.00,,,0.01,Wunderground v.1.15,2013-01-14 01:48:00,
2013-01-13 20:54:00,60.0,57.4,30.13,SSE,153,4.0,7.0,91,0.00,,,0.01,Wunderground v.1.15,2013-01-14 01:54:00,
2013-01-13 20:59:00,59.8,57.2,30.13,SSE,153,5.0,7.0,91,0.00,,,0.01,Wunderground v.1.15,2013-01-14 01:59:00,